• In Uzbekistan
  • List of Countries
  • For 7 days
  • Water Temperature
  • Satellite Maps
  • Weather Map
  • Weather Widgets
  • user-avatar
    Login

    Hourly Weather Oran

    Today, 28 April, Friday

    Time Temperature Precipitation Wind Pressure Humidity
    00:00 +14°C° 0 mm 6 mps 748 mmHg 93%
    01:00 +14°C° 0.1 mm 6 mps 748 mmHg 94%
    02:00 +14°C° 0.1 mm 6 mps 748 mmHg 94%
    03:00 +14°C° 0.1 mm 5 mps 748 mmHg 94%
    04:00 +15°C° 0.3 mm 6 mps 748 mmHg 93%
    05:00 +15°C° 0.3 mm 6 mps 748 mmHg 91%
    06:00 +16°C° 0.3 mm 6 mps 748 mmHg 90%
    07:00 +16°C° 0.3 mm 6 mps 748 mmHg 86%
    08:00 +17°C° 0.3 mm 6 mps 748 mmHg 82%
    09:00 +19°C° 0.3 mm 6 mps 749 mmHg 78%
    10:00 +20°C° 0.1 mm 6 mps 749 mmHg 72%
    11:00 +22°C° 0.1 mm 6 mps 749 mmHg 66%
    12:00 +23°C° 0.1 mm 6 mps 749 mmHg 59%
    13:00 +24°C° 0 mm 6 mps 749 mmHg 57%
    14:00 +24°C° 0 mm 6 mps 748 mmHg 55%
    15:00 +26°C° 0 mm 7 mps 748 mmHg 52%
    16:00 +23°C° 0 mm 7 mps 748 mmHg 58%
    17:00 +22°C° 0 mm 7 mps 748 mmHg 63%
    18:00 +21°C° 0 mm 7 mps 748 mmHg 68%
    19:00 +19°C° 0 mm 6 mps 749 mmHg 75%
    20:00 +17°C° 0 mm 6 mps 749 mmHg 82%
    21:00 +16°C° 0 mm 5 mps 750 mmHg 89%
    22:00 +15°C° 0 mm 5 mps 750 mmHg 90%
    23:00 +15°C° 0 mm 4 mps 750 mmHg 91%

    Tomorrow, 29 April, Saturday

    Time Temperature Precipitation Wind Pressure Humidity
    00:00 +16°C° 0 mm 3 mps 750 mmHg 93%
    01:00 +16°C° 0.1 mm 3 mps 749 mmHg 93%
    02:00 +16°C° 0.1 mm 2 mps 749 mmHg 92%
    03:00 +16°C° 0.1 mm 2 mps 749 mmHg 92%
    04:00 +16°C° 0 mm 2 mps 749 mmHg 92%
    05:00 +16°C° 0 mm 2 mps 749 mmHg 92%
    06:00 +16°C° 0 mm 2 mps 749 mmHg 92%
    07:00 +18°C° 0 mm 2 mps 749 mmHg 82%
    08:00 +20°C° 0 mm 2 mps 750 mmHg 72%
    09:00 +23°C° 0 mm 2 mps 750 mmHg 62%
    10:00 +24°C° 0 mm 3 mps 750 mmHg 57%
    11:00 +25°C° 0 mm 3 mps 750 mmHg 52%
    12:00 +27°C° 0 mm 4 mps 750 mmHg 47%
    13:00 +27°C° 0 mm 4 mps 749 mmHg 47%
    14:00 +26°C° 0 mm 4 mps 749 mmHg 47%
    15:00 +26°C° 0 mm 4 mps 749 mmHg 47%
    16:00 +25°C° 0 mm 4 mps 749 mmHg 51%
    17:00 +24°C° 0 mm 3 mps 749 mmHg 56%
    18:00 +21°C° 0 mm 3 mps 749 mmHg 61%
    19:00 +20°C° 0 mm 2 mps 749 mmHg 68%
    20:00 +18°C° 0 mm 2 mps 750 mmHg 75%
    21:00 +18°C° 0 mm 1 mps 750 mmHg 82%
    22:00 +18°C° 0 mm 1 mps 750 mmHg 82%
    23:00 +18°C° 0 mm 1 mps 750 mmHg 82%

    Day after tomorrow, 30 April, Sunday

    Time Temperature Precipitation Wind Pressure Humidity
    00:00 +18°C° 0 mm 1 mps 750 mmHg 81%
    01:00 +18°C° 0 mm 1 mps 750 mmHg 84%
    02:00 +16°C° 0 mm 1 mps 750 mmHg 86%
    03:00 +16°C° 0 mm 1 mps 750 mmHg 88%
    04:00 +16°C° 0 mm 1 mps 750 mmHg 87%
    05:00 +18°C° 0 mm 1 mps 750 mmHg 86%
    06:00 +18°C° 0 mm 1 mps 750 mmHg 85%
    07:00 +19°C° 0 mm 2 mps 751 mmHg 76%
    08:00 +20°C° 0 mm 2 mps 751 mmHg 67%
    09:00 +22°C° 0 mm 3 mps 751 mmHg 58%
    10:00 +23°C° 0 mm 4 mps 751 mmHg 55%
    11:00 +25°C° 0 mm 4 mps 751 mmHg 52%
    12:00 +25°C° 0 mm 5 mps 751 mmHg 50%
    13:00 +25°C° 0 mm 5 mps 751 mmHg 51%
    14:00 +24°C° 0 mm 6 mps 750 mmHg 52%
    15:00 +23°C° 0 mm 6 mps 750 mmHg 53%
    16:00 +22°C° 0 mm 6 mps 750 mmHg 56%
    17:00 +21°C° 0 mm 6 mps 750 mmHg 60%
    18:00 +20°C° 0 mm 6 mps 750 mmHg 63%
    19:00 +19°C° 0 mm 5 mps 751 mmHg 70%
    20:00 +17°C° 0 mm 5 mps 752 mmHg 76%
    21:00 +15°C° 0 mm 5 mps 752 mmHg 82%
    22:00 +15°C° 0 mm 5 mps 752 mmHg 82%
    23:00 +15°C° 0 mm 5 mps 752 mmHg 82%

    1 May, Monday

    Time Temperature Precipitation Wind Pressure Humidity
    00:00 +15°C° 0 mm 5 mps 753 mmHg 83%
    01:00 +14°C° 0 mm 5 mps 753 mmHg 83%
    02:00 +14°C° 0 mm 4 mps 752 mmHg 83%
    03:00 +14°C° 0 mm 4 mps 752 mmHg 83%
    04:00 +14°C° 0 mm 3 mps 753 mmHg 80%
    05:00 +14°C° 0 mm 3 mps 753 mmHg 77%
    06:00 +16°C° 0 mm 2 mps 753 mmHg 75%
    07:00 +18°C° 0 mm 2 mps 754 mmHg 67%
    08:00 +20°C° 0 mm 2 mps 754 mmHg 59%
    09:00 +23°C° 0 mm 2 mps 754 mmHg 52%
    10:00 +24°C° 0 mm 3 mps 754 mmHg 49%
    11:00 +25°C° 0 mm 3 mps 754 mmHg 46%
    12:00 +26°C° 0 mm 3 mps 754 mmHg 43%
    13:00 +26°C° 0 mm 4 mps 754 mmHg 43%
    14:00 +26°C° 0 mm 4 mps 754 mmHg 44%
    15:00 +26°C° 0 mm 4 mps 753 mmHg 45%
    16:00 +25°C° 0 mm 4 mps 753 mmHg 50%
    17:00 +23°C° 0 mm 4 mps 753 mmHg 54%
    18:00 +22°C° 0 mm 4 mps 753 mmHg 59%
    19:00 +20°C° 0 mm 4 mps 754 mmHg 66%
    20:00 +18°C° 0 mm 3 mps 754 mmHg 73%
    21:00 +16°C° 0 mm 3 mps 755 mmHg 80%
    22:00 +16°C° 0 mm 3 mps 755 mmHg 81%
    23:00 +16°C° 0 mm 2 mps 754 mmHg 82%

    2 May, Tuesday

    Time Temperature Precipitation Wind Pressure Humidity
    00:00 +15°C° 0 mm 2 mps 754 mmHg 83%
    01:00 +14°C° 0 mm 3 mps 754 mmHg 84%
    02:00 +14°C° 0 mm 3 mps 754 mmHg 85%
    03:00 +14°C° 0 mm 3 mps 753 mmHg 86%
    04:00 +14°C° 0 mm 3 mps 753 mmHg 83%
    05:00 +16°C° 0 mm 3 mps 753 mmHg 80%
    06:00 +17°C° 0 mm 3 mps 753 mmHg 76%
    07:00 +19°C° 0 mm 3 mps 753 mmHg 66%
    08:00 +22°C° 0 mm 3 mps 753 mmHg 55%
    09:00 +26°C° 0 mm 3 mps 753 mmHg 44%
    10:00 +27°C° 0 mm 4 mps 753 mmHg 39%
    11:00 +29°C° 0 mm 5 mps 752 mmHg 35%
    12:00 +30°C° 0 mm 5 mps 752 mmHg 30%
    13:00 +30°C° 0 mm 6 mps 752 mmHg 30%
    14:00 +30°C° 0 mm 6 mps 751 mmHg 29%
    15:00 +30°C° 0 mm 7 mps 750 mmHg 29%
    16:00 +29°C° 0 mm 7 mps 750 mmHg 31%
    17:00 +28°C° 0 mm 6 mps 750 mmHg 33%
    18:00 +26°C° 0 mm 6 mps 750 mmHg 35%
    19:00 +23°C° 0 mm 5 mps 751 mmHg 42%
    20:00 +21°C° 0 mm 4 mps 751 mmHg 48%
    21:00 +19°C° 0 mm 4 mps 751 mmHg 55%
    22:00 +18°C° 0 mm 3 mps 751 mmHg 56%
    23:00 +18°C° 0 mm 3 mps 751 mmHg 56%

    3 May, Wednesday

    Time Temperature Precipitation Wind Pressure Humidity
    00:00 +17°C° 0 mm 2 mps 751 mmHg 57%
    01:00 +17°C° 0 mm 2 mps 750 mmHg 59%
    02:00 +16°C° 0 mm 2 mps 750 mmHg 62%
    03:00 +16°C° 0 mm 1 mps 750 mmHg 64%
    04:00 +18°C° 0 mm 1 mps 750 mmHg 64%
    05:00 +17°C° 0 mm 2 mps 750 mmHg 63%
    06:00 +18°C° 0 mm 2 mps 750 mmHg 63%
    07:00 +21°C° 0 mm 2 mps 750 mmHg 53%
    08:00 +25°C° 0 mm 2 mps 750 mmHg 43%
    09:00 +28°C° 0 mm 2 mps 750 mmHg 32%
    10:00 +29°C° 0 mm 2 mps 750 mmHg 31%
    11:00 +30°C° 0 mm 3 mps 750 mmHg 30%
    12:00 +32°C° 0 mm 4 mps 750 mmHg 29%
    13:00 +32°C° 0 mm 4 mps 749 mmHg 29%
    14:00 +32°C° 0 mm 4 mps 749 mmHg 29%
    15:00 +32°C° 0 mm 4 mps 749 mmHg 29%
    16:00 +30°C° 0 mm 4 mps 749 mmHg 32%
    17:00 +28°C° 0 mm 4 mps 749 mmHg 35%
    18:00 +27°C° 0 mm 3 mps 749 mmHg 38%
    19:00 +25°C° 0 mm 2 mps 749 mmHg 44%
    20:00 +21°C° 0 mm 2 mps 750 mmHg 51%
    21:00 +20°C° 0 mm 1 mps 750 mmHg 57%
    22:00 +20°C° 0 mm 1 mps 750 mmHg 59%
    23:00 +19°C° 0 mm 1 mps 750 mmHg 62%
    Show more